Wind_Speed
7 7 7 8 8 8 8 8 8 8 7 7 7 7 7 7 7 7 7 6 5 5 5 4 4 3 3 3 3 4 4 4 4 4 3 3 2 3 3 3 2 2 2 2
7 7 8 8 8 8 8 8 8 8 8 8 7 7 7 7 7 6 6 6 4 4 4 4 4 3 3 3 4 4 4 4 4 4 4 3 3 2 3 3 3 3 2 2
8 8 8 8 8 8 8 8 8 8 8 8 8 7 7 7 7 6 6 6 4 4 4 4 4 3 3 3 3 4 4 3 4 4 3 4 3 3 3 3 3 3 3 3
7 7 7 8 8 8 8 8 8 7 7 7 7 6 7 7 7 7 7 6 5 4 4 4 4 4 4 3 3 3 3 3 3 3 4 4 3 4 4 3 3 2 2 3
7 7 7 8 8 7 7 7 7 7 8 8 7 7 6 7 7 7 7 6 5 5 5 4 4 4 4 4 3 3 3 3 3 3 3 4 4 4 4 4 4 3 3 3
8 8 8 8 8 8 7 7 7 7 8 8 8 8 7 7 7 7 7 6 6 6 5 5 5 5 5 5 4 3 3 3 3 3 3 3 3 3 3 3 4 4 4 3
9 9 8 8 8 8 7 7 7 8 8 8 8 8 8 8 8 8 7 7 7 6 6 6 6 6 5 5 4 4 3 3 3 3 3 3 2 2 2 2 3 4 4 3
10 10 10 9 8 8 8 8 8 9 9 8 8 8 8 8 9 9 8 7 6 6 6 6 6 6 6 5 4 4 4 4 3 3 3 3 3 3 2 3 3 3 3 3
12 12 11 10 10 9 9 9 9 9 9 9 9 9 9 9 9 9 8 8 8 8 8 8 7 7 7 6 5 5 5 4 4 4 4 4 3 3 2 3 3 3 4 3
13 12 11 11 11 10 10 9 9 9 10 10 9 9 9 9 9 8 8 9 9 9 9 9 8 7 7 7 7 7 6 5 5 5 5 5 4 3 3 2 3 4 4 4
13 13 11 11 12 11 10 10 9 10 10 10 10 9 9 9 9 9 8 8 9 9 8 8 8 8 8 8 7 7 6 6 5 5 5 5 5 4 3 3 4 4 4 4
14 14 13 13 13 13 12 11 11 11 10 11 11 10 9 9 9 9 9 8 8 7 7 8 8 9 9 8 8 8 7 6 6 5 6 6 6 6 5 4 4 5 5 5
15 15 14 14 14 14 14 13 13 12 12 12 11 10 10 10 10 10 9 9 8 8 8 8 9 9 8 8 8 8 7 7 7 6 6 7 7 7 7 6 6 6 6 6
16 16 15 15 15 15 15 15 14 13 13 13 12 10 10 10 11 11 10 10 9 8 9 9 9 8 8 8 9 9 8 8 8 8 7 7 7 8 9 9 8 8 8 7
17 17 16 16 16 16 16 15 14 14 13 13 12 12 10 10 11 11 11 11 11 10 9 9 9 8 9 9 9 9 9 9 10 9 9 8 8 8 9 9 9 9 9 10
18 18 18 17 17 17 16 16 15 15 14 13 13 12 12 11 12 12 12 12 12 11 10 10 10 10 10 10 10 10 10 10 10 10 10 9 9 10 10 10 10 11 11 11
19 19 19 18 18 18 16 15 16 15 15 15 14 13 13 13 13 13 13 13 13 12 11 11 11 11 11 11 11 11 11 12 12 11 11 10 11 11 11 11 11 12 12 11
21 21 21 20 19 19 17 16 16 16 16 16 15 15 15 15 15 15 15 14 14 14 13 13 13 13 13 12 12 12 12 12 12 12 12 12 12 12 12 12 13 13 13 13
22 22 22 22 21 20 18 17 17 17 16 16 16 16 17 16 16 16 16 16 15 14 14 14 14 14 13 13 13 14 14 13 13 13 14 14 14 13 14 14 14 14 14 15
23 23 23 23 23 22 19 19 19 19 18 18 18 18 18 18 17 17 17 17 17 16 16 15 15 15 15 14 14 14 14 14 14 14 14 14 14 14 15 15 15 16 16 16
24 24 24 24 24 23 21 21 20 20 19 19 19 19 19 19 19 19 19 19 19 18 17 16 16 15 15 15 15 15 15 15 15 15 15 14 15 15 16 16 17 17 17 17
25 26 26 25 25 24 22 22 22 21 21 20 20 20 20 20 20 20 20 20 20 20 19 18 17 17 16 16 16 16 16 15 15 16 17 16 16 16 17 17 17 18 18 18
26 26 27 26 25 24 23 22 23 23 22 21 21 21 21 21 21 21 21 21 21 21 21 20 20 19 19 19 18 17 17 17 16 17 17 17 17 18 18 18 18 19 18 18
26 27 27 26 25 24 24 23 23 23 23 23 22 22 23 22 22 22 22 22 21 21 22 21 21 21 20 20 20 19 20 19 19 18 18 19 19 18 19 19 19 19 19 19
27 27 27 26 24 24 25 24 24 24 24 24 23 23 23 23 23 23 23 23 23 23 22 23 23 23 23 22 22 22 22 22 21 21 21 20 19 19 19 19 19 19 19 19
28 28 28 27 26 26 26 26 26 25 25 25 25 24 23 23 23 23 23 23 23 23 23 23 24 24 24 24 23 23 23 23 23 23 22 21 21 21 20 20 20 20 19 20
Wind_Direction
290 292 296 300 300 301 303 307 310 307 308 311 314 312 312 309 301 298 294 290 281 278 286 288 283 284 288 290 288 287 282 270 270 275 286 287 286 271 271 281 278 283 307 318
287 290 295 298 298 301 303 306 305 303 305 309 311 309 309 308 306 302 299 295 286 272 273 275 277 285 288 293 287 284 279 266 265 270 271 271 277 276 269 269 264 256 279 313
284 289 294 296 298 302 303 303 300 300 305 309 309 308 306 305 303 300 296 295 288 282 279 273 275 281 285 288 284 278 279 266 256 257 265 268 259 266 271 256 245 254 258 272
280 288 295 296 300 302 300 299 300 302 304 312 314 313 309 305 304 300 295 291 284 282 280 278 275 273 277 281 283 275 274 270 253 254 261 265 263 263 260 251 244 251 254 265
280 285 292 297 299 300 298 297 300 303 306 312 314 314 315 309 304 303 297 290 285 281 282 282 276 268 267 273 284 276 271 269 255 252 256 263 265 269 252 243 243 251 251 253
278 285 289 292 293 296 298 295 296 300 306 310 315 315 315 311 309 309 299 290 282 280 282 286 277 267 266 269 277 277 276 272 269 255 252 260 266 263 250 245 245 247 249 253
276 280 284 288 291 295 297 294 293 296 302 308 312 311 313 316 312 309 302 290 282 276 278 285 281 267 264 265 265 267 273 272 272 260 253 241 241 246 243 247 249 248 248 255
273 276 280 284 289 292 291 294 292 293 297 304 309 315 316 314 311 308 300 285 276 277 277 279 280 272 264 262 262 264 268 273 261 242 251 251 254 248 246 254 254 248 249 261
272 275 277 279 281 285 285 289 291 292 293 297 306 314 311 306 305 302 296 286 280 280 281 276 275 271 266 262 262 267 268 266 258 257 260 269 272 259 250 257 258 262 258 261
271 271 273 274 277 278 280 285 287 291 294 295 303 311 309 303 302 301 294 285 278 283 282 277 273 268 267 265 266 269 266 260 261 260 263 262 265 262 257 256 264 276 268 267
269 269 270 270 273 276 277 282 285 290 294 298 302 307 308 301 297 297 293 286 279 278 277 279 275 271 268 269 271 263 259 259 262 259 263 256 250 255 255 260 272 280 280 278
267 267 267 266 269 271 272 277 281 284 290 294 295 299 304 302 299 294 290 286 281 277 281 281 279 275 268 265 268 259 258 259 258 263 265 259 249 256 256 262 272 279 282 283
264 266 266 265 266 269 270 273 277 281 285 287 290 297 297 295 293 295 289 287 281 279 279 277 274 272 265 261 261 259 255 255 255 261 266 261 251 255 260 265 269 276 281 285
262 265 266 267 268 269 271 273 277 281 284 286 288 293 290 289 288 289 290 286 284 280 277 276 276 272 264 261 260 261 253 253 254 257 263 262 257 258 264 269 268 273 278 282
260 262 264 266 267 266 268 270 273 276 279 281 284 286 286 286 288 289 287 285 285 280 278 277 275 275 268 263 261 260 255 253 255 258 261 262 261 261 266 271 272 277 279 279
260 260 262 264 266 265 265 267 269 270 274 277 280 281 282 282 283 285 284 281 281 280 279 275 272 268 264 261 260 259 257 256 255 257 259 260 263 264 266 270 272 274 279 279
260 261 260 262 266 266 266 268 268 268 270 274 276 279 280 281 281 282 284 282 277 277 275 272 269 264 262 258 257 260 259 257 254 253 255 259 263 267 269 269 271 272 275 278
258 259 260 261 263 265 267 268 269 268 269 272 274 274 277 280 279 279 280 279 276 275 272 271 270 266 263 260 258 259 260 257 253 252 254 258 263 268 271 273 274 276 277 278
258 258 259 260 261 265 267 269 269 269 269 271 272 273 276 278 279 277 277 276 277 275 272 270 268 265 265 264 261 261 260 258 257 257 259 262 266 269 272 274 276 277 279 279
256 258 260 262 262 263 265 268 270 271 270 271 271 270 272 275 275 274 274 272 273 274 273 269 269 265 262 263 263 262 261 261 261 262 264 265 266 269 272 273 275 277 278 278
255 258 260 263 263 262 264 267 269 270 272 272 270 269 270 273 273 271 270 270 272 273 273 269 267 266 263 263 263 263 262 262 264 264 264 267 269 271 273 274 275 276 277 277
256 258 260 263 264 263 264 265 267 271 272 270 268 268 270 271 271 271 271 271 271 271 270 268 265 264 261 260 261 262 262 263 266 266 265 267 270 272 275 276 277 276 276 276
256 258 260 263 265 265 264 264 265 267 268 267 266 267 269 269 269 270 271 271 269 268 268 266 263 262 263 261 259 259 262 265 266 267 267 269 272 274 275 276 276 277 277 277
256 256 258 260 262 264 263 263 264 266 267 266 266 267 268 268 268 268 269 269 269 270 269 265 262 260 260 260 258 258 261 263 267 268 269 271 273 274 274 274 276 277 277 277
255 255 257 259 261 263 262 263 265 266 266 265 264 265 267 267 268 268 268 268 269 270 269 265 262 260 258 258 258 259 260 262 265 267 266 269 271 273 274 275 277 277 276 276
254 256 258 260 260 262 261 262 264 265 265 265 264 263 265 267 267 267 267 267 268 267 267 266 262 260 258 258 259 260 260 263 266 266 264 265 269 272 274 275 275 276 277 278
Height
5876 5876 5876 5875 5875 5875 5874 5874 5873 5873 5872 5872 5871 5870 5870 5869 5868 5868 5867 5866 5865 5865 5864 5864 5863 5863 5863 5862 5862 5862 5862 5862 5861 5861 5861 5861 5861 5861 5862 5861 5861 5861 5861 5860
5875 5875 5875 5874 5874 5873 5873 5872 5872 5872 5871 5871 5870 5869 5869 5868 5867 5866 5865 5865 5864 5864 5863 5863 5863 5862 5862 5861 5861 5861 5861 5860 5860 5861 5861 5861 5861 5861 5861 5861 5861 5861 5860 5860
5874 5874 5873 5873 5872 5872 5871 5871 5870 5870 5870 5869 5869 5869 5868 5867 5866 5865 5864 5863 5863 5863 5862 5862 5862 5861 5861 5860 5860 5860 5859 5859 5859 5860 5860 5860 5860 5860 5860 5860 5860 5860 5860 5860
5872 5872 5872 5872 5871 5870 5870 5869 5869 5869 5869 5868 5868 5868 5867 5865 5865 5864 5863 5862 5862 5862 5861 5861 5861 5860 5860 5859 5859 5858 5858 5858 5858 5859 5859 5859 5859 5859 5859 5859 5859 5859 5859 5859
5871 5871 5870 5870 5870 5869 5868 5868 5868 5867 5867 5867 5867 5866 5866 5864 5863 5862 5862 5861 5861 5860 5860 5860 5859 5859 5859 5858 5858 5858 5858 5858 5858 5858 5858 5858 5858 5858 5858 5858 5859 5858 5858 5858
5869 5869 5869 5869 5868 5868 5867 5867 5867 5866 5866 5867 5866 5865 5864 5862 5862 5861 5860 5860 5859 5859 5859 5858 5858 5858 5857 5857 5857 5857 5857 5857 5857 5857 5857 5857 5857 5857 5857 5857 5857 5857 5857 5857
5867 5868 5868 5867 5867 5867 5867 5867 5866 5865 5865 5865 5864 5863 5863 5861 5860 5859 5859 5858 5858 5857 5857 5857 5856 5856 5856 5856 5856 5856 5856 5856 5856 5856 5856 5856 5856 5856 5856 5856 5856 5856 5856 5856
5865 5866 5866 5866 5866 5865 5865 5865 5866 5865 5864 5864 5863 5862 5862 5860 5859 5858 5857 5857 5856 5856 5856 5855 5855 5854 5855 5855 5855 5854 5855 5855 5855 5855 5855 5855 5855 5855 5855 5856 5856 5855 5855 5855
5863 5864 5864 5864 5863 5864 5863 5863 5863 5863 5862 5862 5861 5861 5860 5858 5857 5856 5855 5855 5855 5854 5854 5854 5853 5853 5853 5853 5853 5853 5853 5853 5853 5854 5854 5854 5854 5854 5854 5854 5854 5855 5854 5854
5861 5861 5862 5861 5861 5861 5862 5861 5861 5860 5860 5860 5860 5859 5858 5856 5856 5855 5854 5853 5853 5852 5852 5852 5851 5851 5851 5851 5851 5851 5852 5852 5852 5852 5852 5853 5853 5853 5854 5854 5854 5854 5854 5853
5858 5859 5859 5859 5859 5859 5859 5859 5859 5858 5858 5858 5857 5859 5856 5855 5854 5853 5852 5851 5851 5850 5850 5850 5849 5849 5849 5849 5849 5850 5850 5850 5850 5851 5851 5851 5852 5852 5853 5853 5853 5853 5853 5853
5855 5856 5856 5856 5857 5856 5856 5856 5856 5857 5856 5855 5855 5858 5854 5852 5851 5850 5850 5849 5848 5848 5848 5848 5847 5847 5847 5847 5847 5848 5848 5849 5849 5849 5850 5850 5850 5851 5851 5851 5852 5852 5851 5851
5851 5852 5852 5853 5855 5854 5853 5853 5853 5853 5853 5852 5852 5855 5851 5850 5849 5848 5847 5847 5846 5846 5845 5845 5845 5845 5844 5845 5846 5846 5846 5846 5847 5847 5848 5848 5849 5849 5850 5850 5850 5850 5850 5850
5847 5848 5849 5850 5850 5850 5850 5850 5850 5850 5850 5850 5850 5850 5849 5847 5846 5846 5845 5844 5844 5843 5843 5843 5843 5842 5842 5843 5843 5843 5844 5844 5845 5845 5846 5846 5847 5847 5848 5848 5848 5848 5848 5848
5842 5843 5844 5845 5846 5846 5846 5847 5847 5847 5846 5846 5847 5846 5846 5845 5844 5843 5843 5842 5841 5841 5841 5840 5840 5840 5840 5840 5841 5841 5841 5842 5842 5843 5844 5844 5845 5845 5846 5846 5846 5846 5846 5846
5838 5839 5840 5841 5841 5841 5842 5843 5843 5843 5843 5843 5843 5843 5843 5842 5841 5841 5840 5839 5839 5838 5838 5838 5838 5838 5837 5838 5838 5838 5839 5839 5839 5840 5841 5842 5842 5843 5843 5843 5843 5843 5843 5843
5833 5834 5835 5836 5836 5837 5838 5840 5839 5839 5839 5840 5840 5841 5839 5839 5838 5838 5837 5837 5836 5836 5835 5835 5835 5835 5835 5835 5835 5835 5836 5836 5837 5837 5838 5839 5839 5840 5840 5840 5840 5840 5840 5839
5828 5828 5829 5830 5832 5832 5837 5835 5835 5835 5835 5836 5836 5836 5835 5835 5835 5834 5834 5833 5833 5833 5832 5832 5831 5832 5832 5832 5832 5832 5833 5833 5834 5834 5835 5835 5836 5836 5836 5837 5837 5836 5836 5836
5822 5823 5823 5824 5825 5827 5830 5830 5830 5830 5831 5831 5831 5831 5831 5831 5830 5830 5830 5829 5829 5829 5828 5828 5828 5828 5828 5828 5829 5829 5829 5830 5830 5831 5832 5832 5832 5832 5833 5833 5833 5832 5832 5832
5816 5817 5818 5818 5819 5821 5825 5825 5824 5825 5826 5826 5826 5826 5825 5825 5826 5826 5825 5825 5824 5824 5824 5824 5824 5824 5824 5825 5825 5825 5826 5826 5827 5827 5827 5828 5828 5828 5828 5828 5828 5828 5828 5827
5810 5810 5811 5812 5812 5814 5818 5819 5819 5820 5822 5820 5820 5820 5820 5820 5821 5821 5820 5820 5819 5819 5819 5819 5819 5820 5820 5820 5821 5821 5822 5822 5823 5823 5823 5823 5824 5824 5824 5824 5823 5823 5823 5823
5802 5804 5805 5806 5806 5811 5812 5812 5813 5814 5813 5813 5813 5814 5814 5814 5814 5814 5814 5814 5814 5814 5814 5814 5815 5815 5816 5816 5816 5817 5818 5818 5818 5819 5819 5819 5819 5819 5819 5818 5818 5818 5818 5817
5795 5797 5798 5800 5802 5803 5804 5805 5805 5806 5806 5806 5807 5807 5808 5808 5808 5808 5808 5808 5808 5808 5808 5809 5809 5810 5811 5811 5812 5812 5813 5813 5813 5814 5814 5814 5813 5813 5813 5813 5813 5812 5812 5812
5788 5789 5790 5792 5794 5795 5796 5797 5798 5798 5799 5799 5800 5801 5801 5801 5801 5801 5801 5802 5802 5802 5802 5802 5803 5804 5804 5805 5806 5807 5807 5808 5808 5808 5808 5808 5808 5808 5808 5807 5807 5807 5806 5806
5780 5781 5782 5784 5787 5788 5789 5790 5791 5791 5791 5792 5792 5793 5793 5794 5794 5794 5795 5795 5795 5795 5795 5795 5796 5797 5798 5798 5799 5800 5801 5801 5802 5802 5803 5802 5802 5802 5802 5802 5801 5801 5800 5800
5773 5774 5775 5777 5780 5780 5782 5782 5783 5784 5784 5784 5785 5785 5786 5786 5787 5787 5787 5788 5788 5788 5788 5788 5789 5790 5791 5791 5792 5793 5794 5794 5795 5796 5796 5796 5796 5796 5796 5796 5795 5795 5795 5794